This is the latest recevied weather packets stored in our database for station/object JS2QVS-13. If no packets are shown the sender has not sent any weather packets the latest 10 day(s).
| Time | Temp. | Humidity | Pressure | Rain* | Wind** | Luminosity | Snow |
|---|---|---|---|---|---|---|---|
| 1777822661 | 19.44° C | 92% | 1000 hPa | 0 mm | - | - | - |
| 1777822063 | 19.44° C | 92% | 1000.4 hPa | 0 mm | - | - | - |
| 1777821463 | 19.44° C | 92% | 1000.6 hPa | 0 mm | - | - | - |
| 1777820863 | 19.44° C | 92% | 1000.9 hPa | 0 mm | - | - | - |
| 1777820262 | 19.44° C | 92% | 1001.2 hPa | 24.38 mm | - | - | - |
| 1777819662 | 19.44° C | 92% | 1001.7 hPa | 23.62 mm | - | - | - |
| 1777819062 | 19.44° C | 92% | 1001.8 hPa | 23.37 mm | - | - | - |
| 1777818462 | 18.89° C | 92% | 1002.1 hPa | 21.34 mm | - | - | - |
| 1777817862 | 18.89° C | 92% | 1002.4 hPa | 17.53 mm | - | - | - |
| 1777817262 | 18.89° C | 92% | 1002.5 hPa | 12.95 mm | - | - | - |
| 1777816662 | 18.89° C | 92% | 1002.8 hPa | 10.16 mm | - | - | - |
| 1777816062 | 18.89° C | 92% | 1002.8 hPa | 9.65 mm | - | - | - |
| 1777815462 | 18.89° C | 92% | 1002.9 hPa | 8.64 mm | - | - | - |
| 1777814861 | 18.89° C | 92% | 1002.8 hPa | 8.13 mm | - | - | - |
| 1777814261 | 18.89° C | 91% | 1003 hPa | 6.86 mm | - | - | - |
| 1777813661 | 18.89° C | 91% | 1003.1 hPa | 6.35 mm | - | - | - |
| 1777813062 | 18.89° C | 91% | 1003.1 hPa | 6.1 mm | - | - | - |
| 1777812463 | 18.89° C | 91% | 1003.3 hPa | 6.1 mm | - | - | - |
| 1777811863 | 18.89° C | 90% | 1003.6 hPa | 5.08 mm | - | - | - |
| 1777811263 | 18.89° C | 90% | 1003.6 hPa | 5.33 mm | - | - | - |
| 1777810663 | 18.89° C | 90% | 1003.8 hPa | 5.84 mm | - | - | - |
| 1777810062 | 18.89° C | 90% | 1004 hPa | 5.59 mm | - | - | - |
| 1777809462 | 18.89° C | 90% | 1003.8 hPa | 5.59 mm | - | - | - |
| 1777808862 | 18.89° C | 90% | 1003.9 hPa | 4.83 mm | - | - | - |
| 1777808262 | 18.89° C | 90% | 1004.1 hPa | 4.57 mm | - | - | - |
* Rain latest hour (hover to see other rain measurements)
** Current wind speed in m/s (hover to see current wind gust speed)